Location: Grange Rosano
(44.4500°N, 6.9667°E)
Time: 21:23:33
(UTC+00:00)

Cosmos 1378 Rocket - Pass Details

Date: 26 May 2022
Orbit: 600 x 627 km, 82.5° (Epoch: 01 July)

Event Time Altitude Azimuth Distance (km) Brightness Sun altitude
Exits shadow 00:22:26 56° 270° (W) 746 3.8 -23.3°
Maximum altitude 00:22:37 56° 281° (WNW) 742 3.8 -23.3°
Drops below altitude 10° 00:27:01 10° 0° (N) 2,009 7.2 -23.1°
Sets 00:29:18 0° 5° (N) 2,923 8.4 -23.0°
